Regional Weather Roundup
Issued by NWS

Home | Current Version | Previous Version | Text Only | Print | Product List | Glossary On
Versions: 1 2 3 4 5 6 7 8 9 10 11 12 13 14 15 16 17 18 19 20 21 22 23 24 25 26 27 28 29 30 31 32 33 34 35 36 37 38 39 40 41 42 43 44 45 46 47 48 49 50
000
ASUS45 KPSR 020110
RWRAZ

ARIZONA REGIONAL HOURLY WEATHER ROUNDUP
NATIONAL WEATHER SERVICE PHOENIX AZ
600 PM MST MON SEP 01 2014

NOTE: FAIR INDICATES FEW OR NO CLOUDS BELOW 12,000 FEET WITH NO
SIGNIFICANT WEATHER AND/OR OBSTRUCTIONS TO VISIBILITY.

AZZ001>003-036-020200-
NORTHWEST ARIZONA

CITY           SKY/WX    TMP DP  RH WIND       PRES   REMARKS
BULLHEAD CITY  SUNNY    106  36   9 S14       29.67S
KINGMAN        SUNNY     94  37  13 SW14      29.90F
$$

AZZ004>008-015-016-018-020200-
NORTH CENTRAL ARIZONA

CITY           SKY/WX    TMP DP  RH WIND       PRES   REMARKS
GRAND CANYON   SUNNY     81  39  22 SW13G20   30.16S
WILLIAMS       SUNNY     77  41  27 SW8       30.25S
PRESCOTT       SUNNY     85  40  20 W7        30.06S
FLAGSTAFF      SUNNY     76  37  24 SW9       30.22S
PAYSON         CLEAR     86  36  16 W6        30.09S
PAGE           CLEAR     95  34  11 NW13      29.92S
$$

AZZ009>014-017-020200-
NORTHEAST ARIZONA

CITY           SKY/WX    TMP DP  RH WIND       PRES   REMARKS
WINSLOW        CLEAR     89  34  14 SW12      30.03R
SAINT JOHNS    CLEAR     84  35  17 W9        30.08S
WINDOW ROCK    CLEAR     84  35  17 W14       30.15S
SHOW LOW       CLEAR     77  36  22 S12       30.18S
$$

AZZ023-020200-
GREATER PHOENIX AREA

CITY           SKY/WX    TMP DP  RH WIND       PRES   REMARKS
PHOENIX        MOSUNNY  105  39  10 N5        29.71F
BUCKEYE          N/A    102  39  11 CALM      29.72S
GLENDALE       SUNNY    106  39  10 CALM      29.73F HX 100
LUKE AFB       NOT AVBL
DEER VALLEY    SUNNY    101  34   9 S3        29.74F
SCOTTSDALE     SUNNY    103  40  11 CALM      29.76F
MESA-FALCON    CLEAR    102  39  11 W7        29.74F
MESA-GATEWAY   CLEAR    102  39  11 NW5       29.76F
CHANDLER       SUNNY    104  41  11 SW6       29.73F
$$

AZZ027-028-020200-
SOUTHWEST MARICOPA COUNTY AND PINAL COUNTY

CITY           SKY/WX    TMP DP  RH WIND       PRES   REMARKS
CASA GRANDE    CLEAR    104  39  11 SW7       29.76S
$$

AZZ503-504-507>509-020200-
SOUTHEAST ARIZONA

CITY           SKY/WX    TMP DP  RH WIND       PRES   REMARKS
TUCSON         CLEAR    101  44  14 N8        29.86F
DAVIS-MONTHAN  CLEAR     98  46  16 NE2       29.85S
NOGALES        FAIR      90  49  24 W3        29.97S
SIERRA VISTA   CLEAR     90  40  17 W8        30.04R
DOUGLAS        PTCLDY    92  48  22 N6        29.98S
SAFFORD        CLEAR     97  34  11 NW13      29.87S
$$

AZZ020-021-025-026-031-020200-
SOUTHWEST ARIZONA

CITY           SKY/WX    TMP DP  RH WIND       PRES   REMARKS
YUMA           SUNNY    108  35   8 CALM      29.63F HX 101
$$

CAZ031-033-041-043-047-048-061-020200-
SOUTHERN CALIFORNIA

CITY           SKY/WX    TMP DP  RH WIND       PRES   REMARKS
DOWNTOWN L.A.  SUNNY     80  65  59 VRB3      29.76S
L.A. AIRPORT   MOSUNNY   75  65  70 W8        29.78S
SAN DIEGO      MOSUNNY   73  62  68 S7        29.80F
BURBANK        SUNNY     85  57  38 S9        29.77S
ONTARIO        MOSUNNY   90  56  31 W14       29.77S
RIVERSIDE      SUNNY     88  60  38 W12       29.76S
PALM SPRINGS   SUNNY    106  35   8 N12       29.67S
IMPERIAL       SUNNY    107  44  12 E7        29.60F HX 102
BLYTHE         SUNNY    106  41  11 S13       29.64F HX 100
NEEDLES        SUNNY    106  29   7 SW13      29.69F
$$

NVZ020-UTZ003-020200-
SOUTHERN NEVADA-UTAH

CITY           SKY/WX    TMP DP  RH WIND       PRES   REMARKS
LAS VEGAS      SUNNY    102  36  10 S14G24    29.71F
SALT LAKE CITY SUNNY     77  32  19 NE9       30.04F
$$

NMZ009-TXZ055-020200-
NEW MEXICO-WEST TEXAS

CITY           SKY/WX    TMP DP  RH WIND       PRES   REMARKS
ALBUQUERQUE    PTCLDY    90  36  14 SW7       30.01F
EL PASO        FAIR      96  33  11 SW14      29.92S
$$


........................KEY........................
SKY/WX - SKY CONDITION/WEATHER
TMP    - TEMPERATURE IN FAHRENHEIT
DP     - DEW POINT IN FAHRENHEIT
RH     - RELATIVE HUMIDITY IN PERCENT
WIND   - DIRECTION AND SPEED IN MILES PER HOUR (MPH)
VRB    - VARIABLE WIND DIRECTION
PRES   - MEAN SEA LEVEL PRESSURE IN INCHES OF MERCURY
         F - FALLING PRESSURE   R - RISING PRESSURE
         S - STEADY PRESSURE
VSB    - VISIBILITY IN MILES
HX     - HEAT INDEX IN FAHRENHEIT
WCI    - WIND CHILL INDEX IN FAHRENHEIT
TC     - TEMPERATURE IN CELSIUS WHICH IS ALSO KNOWN AS
         TEMPERATURE IN CENTIGRADE
AFB    - AIR FORCE BASE
         LUKE AFB IS LUKE AIR FORCE BASE
         DAVIS-MONTHAN IS DAVIS-MONTHAN AIR FORCE BASE
NAS    - NAVAL AIR STATION
         EL CENTRO NAS IS EL CENTRO NAVAL AIR STATION
N/A    - NOT AVAILABLE


USA.gov is the U.S. government's official web portal to all federal, state and local government web resources and services.